Location: Artiguedieu
(43.5000°N, 0.5454°E)
Time: 23:26:31
(UTC+00:00)

Transit 2A Rocket - Pass Details

Date: 05 August 2021
Orbit: 586 x 916 km, 66.7° (Epoch: 19 September)

Event Time Altitude Azimuth Distance (km) Brightness Sun altitude
Rises 21:20:50 0° 330° (NNW) 3,283 9.8 -19.2°
Reaches altitude 10° 21:23:12 10° 334° (NNW) 2,399 8.7 -19.5°
Maximum altitude 21:28:45 65° 56° (NE) 942 5.3 -20.1°
Enters shadow 21:31:00 38° 124° (ESE) 1,315 5.7 -20.4°
Drops below altitude 10° 21:34:41 10° 138° (SE) 2,561 - -20.8°
Sets 21:37:16 0° 141° (SE) 3,520 - -21.1°
